Total_Precipitation_Accumulation
2.87 2.88 2.78 2.71 2.50 2.55 2.89 3.14 2.97 2.95 2.86 2.65 2.39 2.18 2.05 1.98 1.91 2.07 2.20 2.32 2.31 2.34 2.58 2.76 2.62 2.37 2.28 2.13 1.94 1.73 1.63 1.61 1.46 1.21 1.08 0.99 0.90 0.89 0.93 0.97 0.94 0.83 0.80
3.28 3.42 3.29 3.14 2.74 2.62 2.68 2.94 2.98 3.19 3.12 2.94 2.36 2.24 2.20 2.18 2.21 2.15 2.31 2.80 2.81 2.44 2.49 2.82 2.98 2.92 2.79 2.63 2.40 2.15 1.98 1.87 1.61 1.33 1.23 1.16 1.03 0.96 1.06 1.14 1.14 0.93 0.79
3.50 3.47 3.29 2.94 2.61 2.58 2.78 2.78 2.76 3.00 2.84 2.72 2.60 2.62 2.57 2.46 2.34 2.30 2.41 2.88 2.85 2.47 2.35 2.45 2.76 3.00 3.12 3.23 3.13 3.01 2.72 2.35 1.97 1.59 1.36 1.19 1.07 0.97 0.99 1.13 1.20 1.09 0.92
3.06 3.11 2.82 2.50 2.51 2.65 2.79 2.97 2.85 2.91 2.94 3.02 3.08 3.02 2.83 2.69 2.27 2.10 2.02 2.16 2.44 2.14 2.29 2.52 2.60 2.69 3.12 3.59 3.78 3.97 3.64 2.95 2.34 1.87 1.57 1.33 1.16 1.01 0.93 0.99 1.10 1.11 1.00
2.38 2.58 2.52 2.44 2.41 2.61 2.66 2.46 2.86 3.09 3.09 3.11 2.86 2.91 2.52 2.39 2.16 1.87 1.84 1.80 1.95 2.10 2.14 2.19 2.32 2.38 2.85 3.59 4.18 4.67 4.55 3.82 3.03 2.52 2.20 1.83 1.56 1.26 1.08 1.03 1.04 1.06 1.00
2.21 2.46 2.44 2.38 2.37 2.55 2.66 2.77 3.06 3.18 2.87 2.80 2.51 2.43 2.13 1.75 1.72 1.69 1.57 1.62 1.76 1.75 1.91 2.08 2.33 2.16 2.63 3.18 3.84 4.54 5.07 4.83 3.98 3.34 3.05 2.74 2.43 1.96 1.48 1.22 1.10 1.10 1.04
2.34 2.59 2.44 2.50 2.32 2.39 2.40 2.48 2.74 2.87 2.49 2.57 3.05 2.65 2.03 1.62 1.62 1.52 1.52 1.61 1.63 1.72 1.98 2.29 2.48 2.54 2.57 2.53 2.82 3.58 4.63 5.17 4.93 4.25 3.84 3.53 3.20 2.65 2.04 1.66 1.41 1.26 1.16
2.26 2.30 2.42 2.26 2.20 2.35 2.33 2.37 2.60 2.59 2.28 2.48 3.00 3.14 2.59 2.19 1.84 1.45 1.44 1.50 1.64 1.87 1.99 2.05 2.46 2.76 2.75 3.06 2.68 2.70 3.51 4.46 5.04 4.92 4.53 3.94 3.45 2.97 2.49 2.18 1.86 1.61 1.39
1.97 2.01 2.00 2.07 2.17 1.96 2.12 2.31 2.45 2.53 2.43 2.36 2.63 3.09 2.91 2.57 2.19 1.77 1.60 1.70 1.91 2.07 2.12 2.26 2.35 2.58 2.79 3.27 3.16 2.90 2.89 3.24 4.18 5.06 5.18 4.51 3.64 3.05 2.82 2.68 2.55 2.13 1.76
1.75 1.78 1.79 1.96 2.03 1.96 2.22 1.93 2.05 2.33 2.55 2.38 2.40 2.44 2.52 2.76 2.75 2.32 1.95 1.80 1.89 2.01 2.08 2.09 2.18 2.45 2.71 3.06 3.35 3.05 2.73 2.58 2.97 3.96 4.78 4.82 4.15 3.32 2.88 2.94 3.32 3.10 2.48
1.72 1.55 1.66 1.85 1.97 2.02 2.10 2.03 2.14 2.09 2.17 2.23 2.32 2.33 2.47 2.72 2.57 2.49 2.32 2.09 1.95 1.77 1.81 1.94 2.14 2.39 2.54 2.81 3.18 2.88 2.71 2.45 2.37 2.70 3.41 3.99 4.14 3.87 3.48 3.42 3.92 4.25 4.00
1.79 1.60 1.62 1.85 1.94 2.01 2.04 2.08 2.06 1.96 2.04 2.17 2.21 2.24 2.45 2.50 2.45 2.55 2.40 2.23 2.08 1.80 1.75 1.83 2.02 2.18 2.27 2.40 2.22 2.19 2.20 2.28 2.20 2.09 2.22 2.61 3.12 3.50 3.61 3.88 4.39 4.90 5.19
1.67 1.67 1.61 1.89 2.02 2.03 1.99 2.09 2.06 2.03 2.14 2.22 2.23 2.25 2.32 2.30 2.34 2.55 2.60 2.34 2.15 1.92 1.98 1.93 1.91 2.05 2.02 2.24 2.18 1.98 1.87 1.96 1.86 1.75 1.72 1.84 2.16 2.60 3.00 3.37 3.79 4.32 4.84
1.58 1.80 1.90 1.93 1.94 1.97 1.98 2.25 2.10 2.11 2.18 2.20 2.09 2.43 2.40 2.25 2.50 2.75 2.93 2.99 2.64 2.37 2.33 2.11 1.92 1.90 1.90 1.98 2.02 2.01 1.88 1.74 1.56 1.50 1.53 1.61 1.71 1.96 2.27 2.57 2.87 3.14 3.42
1.61 1.81 1.97 2.07 2.01 1.98 2.08 2.30 2.27 2.31 2.41 2.29 2.27 2.52 2.46 2.34 2.43 2.58 2.88 3.17 3.19 2.88 2.72 2.49 2.23 2.07 1.97 1.98 2.09 1.90 1.87 1.90 1.64 1.49 1.51 1.54 1.62 1.70 1.75 1.76 1.88 1.98 2.16
1.77 1.85 1.85 1.89 1.90 1.88 2.01 2.33 2.34 2.37 2.57 2.51 2.44 2.47 2.47 2.36 2.47 2.50 2.64 3.00 3.29 3.30 2.98 2.37 2.29 2.16 2.05 1.85 1.97 1.78 1.80 1.95 1.72 1.52 1.42 1.34 1.34 1.38 1.41 1.49 1.62 1.69 1.77
1.85 1.84 1.83 1.86 1.82 1.74 1.84 2.04 2.14 2.33 2.48 2.52 2.46 2.48 2.48 2.62 2.68 2.57 2.67 2.80 3.04 3.22 2.87 2.35 2.44 2.56 2.50 2.26 2.05 1.86 1.75 1.72 1.70 1.66 1.36 1.27 1.26 1.23 1.30 1.39 1.47 1.53 1.62
1.90 1.94 1.92 1.89 1.74 1.74 1.85 1.94 2.06 2.23 2.35 2.43 2.54 2.64 2.43 2.56 2.68 2.62 2.64 2.65 2.79 3.08 2.96 2.78 2.72 2.78 2.71 2.46 2.20 1.90 1.59 1.45 1.52 1.75 1.45 1.26 1.19 1.20 1.25 1.28 1.27 1.29 1.30
1.92 2.02 2.04 1.96 1.90 1.91 1.98 2.02 2.07 2.20 2.28 2.34 2.46 2.47 2.43 2.58 2.46 2.54 2.64 2.59 2.61 2.67 2.80 2.75 2.59 2.65 2.58 2.39 2.21 1.92 1.67 1.64 1.47 1.50 1.42 1.29 1.21 1.19 1.20 1.16 1.12 1.13 1.15
1.83 1.85 1.83 1.91 1.98 2.00 2.01 2.00 2.00 2.02 2.07 2.14 2.13 2.06 2.01 2.05 2.12 2.32 2.32 2.33 2.43 2.51 2.60 2.53 2.47 2.53 2.53 2.56 2.41 2.11 1.96 1.80 1.59 1.35 1.35 1.32 1.30 1.25 1.20 1.14 1.05 1.04 1.09
1.64 1.81 1.83 1.93 2.03 2.00 1.87 1.91 1.91 1.84 1.99 1.94 1.81 1.76 1.77 1.86 1.88 1.96 1.87 1.98 2.19 2.28 2.33 2.40 2.46 2.62 2.62 2.73 2.58 2.30 2.19 2.06 1.77 1.50 1.43 1.32 1.28 1.22 1.23 1.24 1.19 1.11 1.05
1.70 1.79 1.85 1.97 2.03 1.89 1.93 1.95 1.96 1.94 1.98 1.91 1.86 1.79 1.64 1.63 1.62 1.64 1.63 1.69 1.85 2.00 2.18 2.35 2.40 2.49 2.57 2.54 2.50 2.37 2.27 2.11 1.84 1.65 1.74 1.70 1.48 1.43 1.55 1.50 1.40 1.16 1.01
1.78 1.86 1.99 2.06 2.01 2.12 2.05 1.88 1.88 1.84 1.88 1.89 1.92 1.89 1.58 1.39 1.53 1.47 1.59 1.57 1.55 1.62 1.73 1.89 2.00 2.13 2.35 2.44 2.53 2.44 2.44 2.32 2.02 1.76 1.69 1.57 1.48 1.50 1.68 1.80 1.55 1.13 1.03
1.96 2.06 2.10 2.01 1.98 2.06 2.02 1.69 1.58 1.48 1.59 1.68 1.73 1.79 1.78 1.68 1.64 1.65 1.69 1.68 1.60 1.59 1.69 1.67 1.71 1.93 2.28 2.57 2.62 2.57 2.60 2.47 2.16 1.82 1.71 1.61 1.46 1.43 1.30 1.31 1.38 1.12 0.95
2.23 2.28 2.30 2.25 2.12 2.12 1.95 1.58 1.40 1.31 1.46 1.54 1.59 1.59 1.61 1.54 1.58 1.49 1.48 1.53 1.54 1.50 1.50 1.50 1.52 1.65 1.91 2.28 2.49 2.52 2.61 2.51 2.27 1.96 1.75 1.69 1.48 1.40 1.28 1.16 1.18 1.23 1.06
2.40 2.42 2.31 2.18 2.07 2.07 2.00 1.65 1.44 1.36 1.50 1.58 1.68 1.65 1.63 1.57 1.54 1.37 1.30 1.37 1.35 1.37 1.46 1.45 1.41 1.41 1.50 1.80 2.12 2.13 2.21 2.34 2.12 1.87 1.53 1.46 1.39 1.34 1.32 1.15 1.03 1.05 1.07